Weather in Liberia

Costa Rica     10°37′37″N   85°26′37″W
temp.,
°C
wind,
m/s
gust,
m/s
humid.,
%
clouds,
%
prec.,
mm/h
press.,
hPa
HPBL,
m
2 august, mon
mon200:00+23ne348775 0.0 1013116
03:00+23ne238699 0.0 101254
06:00+23ene228878 0.0 101249
09:00+28ese0270100 0.0 1013933
12:00+28s0274100 4.1 1012789
15:00+27wsw127999 5.6 1010475
18:00+24w0191100 11.6 101220
21:00+23ene119482 3.6 101418
3 august, tue
tue300:00+22e119486 3.6 101314
03:00+22se229398 0.1 101130
06:00+22ese2596100 0.2 1013201
09:00+25sse3387100 0.8 1014560
12:00+24wsw4591100 7.4 1014627
15:00+23nw2395100 3.3 1012197
18:00+23n2295100 3.6 101244
21:00+22nne2392100 0.3 101455
4 august, wed
wed400:00+22nne2291100 0.5 101437
03:00+22ne1291100 0.1 101239
06:00+22ene119293 0.1 101333
09:00+27w117699 0.0 1014566
12:00+29wsw227191 0.0 1012957
15:00+27se1281100 5.0 1011399
18:00+24e239299 8.7 101370
21:00+23e2291100 0.9 101433
5 august, thu
thu500:00+22ne119096 1.1 101419
03:00+22n2291100 0.3 101332
06:00+22n2292100 0.4 101438
09:00+23ese0189100 0.0 101593
12:00+27wsw327779 1.3 1014633
15:00+26w128589 5.4 1012298
18:00+23ese1191100 9.8 101324
21:00+23ene1291100 0.9 101532
6 august, fri
fri600:00+23ene1191100 0.9 101423
03:00+22ne2291100 0.0 101331
06:00+22ene119167 0.1 101438
09:00+27wsw027338 0.0 1014868
12:00+28wsw227658 1.6 1013700
15:00+28nnw127597 6.1 1011685
18:00+24e2286100 8.9 101274
21:00+23ne2490100 0.1 1014123